RH
24 22 19 17 16 15 16 15 15 15 16 16 15 16 16 16 17 17 17 17 17 19 24 29 29 27 27 25 22 23 33 51 54 46 37 15 5 11 5 7 16 16 23 29 26 23 19 17 16 23 30 29 30 30 31 34 37 42 50 60 65 69 67 60 58 58 56 51 57 58 50 55 60 58 53 50 51 51 50 46 39 38 37 37 43 46 51 55
25 21 19 16 15 14 14 14 14 14 14 15 15 15 13 14 14 15 15 15 17 18 23 31 29 28 26 22 24 29 43 62 53 36 30 17 8 8 5 11 17 15 22 24 19 16 12 11 15 22 27 30 31 30 31 35 41 43 44 50 59 64 67 63 57 56 53 49 54 54 50 52 55 54 52 56 58 51 48 46 41 44 45 43 46 48 53 56
25 21 19 16 14 13 13 13 13 13 13 13 14 14 13 13 12 13 13 13 16 16 22 30 30 29 24 23 27 33 54 60 38 26 30 20 8 6 8 14 15 15 18 17 14 14 11 10 16 25 29 31 30 30 32 38 42 40 41 49 52 52 57 60 57 54 52 50 54 54 51 52 53 50 52 57 55 49 46 42 41 46 47 44 45 48 53 55
24 22 20 19 16 14 13 12 12 12 12 12 12 13 12 12 12 13 12 12 14 15 21 29 33 28 22 27 29 39 61 48 20 24 31 18 8 7 10 15 14 13 14 12 12 13 11 11 20 27 32 33 28 27 29 33 38 38 41 45 48 48 52 63 59 54 53 50 53 53 54 56 51 48 53 53 48 48 43 35 36 41 44 43 44 47 51 53
24 22 20 20 18 16 15 13 12 12 11 11 11 11 11 11 11 11 11 12 12 14 19 27 34 26 25 31 34 51 56 30 16 25 28 15 9 9 11 15 14 13 14 10 10 13 12 14 23 29 32 32 26 25 26 28 32 39 42 40 46 48 56 70 62 57 54 48 53 54 55 56 50 49 52 50 47 44 39 32 32 36 39 41 43 46 49 50
24 21 19 19 18 17 16 15 13 12 11 11 11 11 11 10 11 11 11 12 12 14 16 26 33 25 28 32 42 63 46 18 20 24 22 13 10 12 12 15 15 14 13 9 10 12 13 15 25 31 30 29 25 24 24 28 32 37 40 42 48 51 64 74 66 64 57 51 57 53 50 51 49 53 50 50 53 44 36 31 30 35 38 40 44 45 46 47
24 20 18 17 17 17 16 16 14 13 12 11 11 10 10 10 10 10 10 12 12 13 15 25 32 26 30 40 50 55 29 14 24 24 20 12 12 15 14 16 15 13 10 8 9 10 14 18 24 29 29 28 23 22 22 28 36 39 41 47 50 56 69 71 65 65 57 53 55 48 49 50 48 53 51 50 51 42 35 32 32 36 39 41 43 42 43 46
23 21 19 17 16 16 16 16 15 14 13 12 11 10 10 10 9 10 10 12 12 13 16 25 33 26 32 51 48 29 14 17 28 28 18 11 15 16 15 17 14 11 9 7 7 8 12 17 24 27 28 27 20 20 23 27 38 41 46 52 53 64 75 70 66 63 56 54 52 50 51 49 48 50 52 52 46 39 35 35 35 37 39 41 41 40 43 45
23 21 19 17 15 15 16 17 16 15 14 13 11 9 9 9 9 10 10 12 13 14 18 27 32 26 38 56 36 11 12 20 27 28 18 14 19 19 19 18 15 12 10 8 7 8 10 13 22 25 25 23 17 21 27 30 40 44 48 56 59 72 83 78 73 64 58 59 53 55 57 55 53 50 52 53 46 40 37 37 37 38 40 40 39 40 44 45
22 21 19 17 15 15 16 17 17 17 16 14 11 9 9 9 10 12 14 15 15 15 21 31 29 29 49 54 26 9 14 22 31 33 24 23 24 23 23 18 16 13 10 10 7 6 8 11 17 22 23 17 18 30 34 34 42 47 49 56 62 74 86 82 75 66 62 63 56 55 62 61 55 54 58 55 47 41 37 40 39 38 39 38 39 41 44 45
21 20 19 16 15 14 15 17 18 18 17 14 10 9 10 12 16 21 23 18 15 19 26 33 28 35 56 46 19 9 15 25 35 37 31 26 23 22 21 18 17 14 10 9 7 6 6 11 15 20 22 16 21 35 38 39 44 46 48 58 64 70 82 82 77 74 69 69 62 56 62 62 57 59 62 55 48 41 39 41 39 37 38 39 40 42 45 45
21 19 18 17 15 13 14 16 18 19 17 13 9 11 15 20 26 30 27 19 20 25 29 33 29 44 57 34 14 11 17 28 31 35 34 26 23 22 21 19 17 14 11 7 6 7 9 15 18 19 19 14 21 35 43 43 43 48 51 60 68 68 76 80 79 78 73 75 69 61 65 67 62 60 58 53 48 44 42 41 39 37 37 40 40 42 45 47
20 19 17 17 15 13 13 14 18 19 15 11 11 15 22 27 29 31 26 21 26 29 32 35 36 56 54 21 12 16 21 30 29 33 34 27 24 24 24 21 18 16 12 8 6 8 12 16 15 15 15 11 18 35 46 45 44 55 57 57 64 69 74 77 78 74 72 78 74 69 69 65 60 59 57 52 50 49 47 42 39 37 37 39 40 41 44 48
22 19 17 16 15 13 13 13 17 17 13 11 13 21 27 28 29 30 28 27 31 31 36 39 45 63 47 14 16 19 20 29 28 30 31 26 21 21 25 21 18 16 12 10 7 8 13 14 12 12 12 11 21 36 46 47 47 54 59 53 50 64 77 75 73 72 74 77 75 74 71 64 59 59 59 52 49 51 48 44 39 37 38 38 38 40 42 47
30 25 19 16 13 13 12 13 16 15 12 12 17 25 29 29 31 32 30 31 33 33 41 48 51 55 30 10 21 18 17 28 25 24 26 23 17 16 21 18 15 14 11 10 8 9 12 11 12 12 12 15 25 36 41 44 43 44 54 52 41 55 74 74 70 68 73 76 75 73 69 72 69 60 59 53 49 52 47 44 41 37 38 37 37 38 39 43
39 34 26 18 13 12 11 13 15 14 13 15 21 29 32 33 36 35 32 33 35 37 47 53 51 45 21 10 22 20 18 21 17 18 22 22 15 13 18 15 12 11 10 10 8 10 10 11 12 11 15 20 24 31 36 36 36 36 42 45 42 46 56 66 71 64 65 75 78 74 70 80 82 67 60 55 52 53 48 45 42 38 38 37 37 34 37 41
43 41 34 23 14 12 11 13 14 13 14 18 24 32 37 41 40 38 36 34 37 44 52 51 44 37 18 11 19 18 14 13 13 16 20 21 14 13 15 12 10 9 9 10 9 10 11 13 13 13 16 21 24 28 34 32 28 31 34 38 42 42 40 52 68 64 62 71 75 77 76 78 83 77 65 57 56 54 49 46 42 38 38 38 36 32 36 42
44 42 38 28 17 11 10 12 13 12 15 20 27 35 40 44 43 42 43 41 43 48 49 46 39 28 14 11 14 13 12 13 14 14 17 18 14 13 13 11 10 8 9 11 11 12 14 13 13 15 17 22 26 26 31 33 30 32 34 35 37 38 40 45 58 63 65 70 70 74 77 74 79 84 73 60 58 55 50 47 41 38 38 39 36 32 35 40
43 42 40 32 20 12 9 12 12 12 17 22 28 37 44 49 49 50 52 47 38 33 28 26 25 18 11 12 12 12 14 15 14 12 14 15 14 13 12 11 10 8 10 13 14 14 13 14 13 16 18 21 25 23 25 30 34 35 32 34 34 33 41 48 55 62 64 68 68 69 70 70 76 85 80 65 58 56 51 47 44 38 38 39 36 33 35 38
43 42 40 34 23 12 9 12 10 12 19 22 29 38 40 39 35 34 38 35 22 15 15 13 14 13 11 11 12 13 14 14 12 10 12 14 13 11 10 10 9 8 9 12 16 14 12 15 15 15 16 18 23 25 26 25 28 31 28 29 31 31 41 53 58 61 65 64 64 67 67 70 76 80 83 73 58 57 54 49 48 41 39 39 35 33 35 37
43 42 40 35 25 13 9 10 9 13 18 20 28 31 23 19 19 17 19 19 13 13 15 13 14 14 13 12 13 14 12 10 9 8 12 14 12 10 9 8 8 8 8 11 15 14 14 15 14 14 14 15 19 21 23 22 22 24 22 24 28 30 39 54 57 57 67 66 60 68 70 70 75 76 82 79 64 59 55 50 49 44 42 40 35 33 36 36
44 42 39 35 26 14 9 10 10 13 16 21 25 21 14 16 19 19 18 15 13 15 15 15 16 15 13 14 15 15 13 10 9 9 11 13 11 10 10 8 8 8 9 11 12 13 15 13 12 14 13 14 15 14 16 17 16 15 17 21 27 30 37 53 63 60 66 65 57 66 69 65 72 77 81 84 73 61 55 50 47 46 44 42 37 35 36 36
45 42 39 36 27 15 10 9 10 12 15 23 22 14 14 18 20 22 20 16 14 14 13 14 14 12 11 13 15 16 12 9 10 9 10 11 10 10 10 8 8 8 9 9 10 13 13 10 11 12 12 14 15 14 14 14 14 14 16 20 23 28 31 40 57 63 64 64 60 63 67 67 76 84 86 86 79 72 67 59 48 45 45 42 36 34 36 37
44 42 39 36 27 16 10 9 13 16 17 21 19 15 16 18 22 23 18 16 15 13 12 12 11 10 9 10 14 15 10 8 10 9 10 10 9 10 9 8 8 7 8 8 8 10 10 9 10 10 12 15 15 15 14 14 14 13 15 19 21 24 26 32 51 62 62 64 66 64 66 74 82 90 93 88 82 81 80 72 58 48 46 42 36 33 34 37
44 42 38 35 29 16 8 11 18 18 16 18 18 17 16 16 21 23 19 17 16 12 11 12 11 9 8 11 14 12 9 9 9 8 10 10 9 10 9 9 9 8 8 8 7 8 8 8 9 10 11 11 13 14 13 15 15 12 13 16 17 21 29 39 52 58 54 55 64 63 64 76 83 87 92 91 88 82 75 72 65 53 48 46 39 34 33 36
41 41 38 36 31 16 10 18 20 14 14 15 17 17 15 14 20 23 21 16 11 9 9 9 10 8 8 10 10 9 9 10 9 8 11 11 9 10 11 10 10 10 10 8 7 7 6 8 8 9 9 9 11 11 10 13 13 13 16 18 21 25 34 44 51 56 53 53 63 62 57 65 75 81 87 92 92 82 71 67 62 55 53 49 42 36 32 34
38 39 37 35 32 21 18 22 17 13 14 14 15 17 14 15 21 24 22 16 10 8 8 7 8 7 7 7 7 8 11 11 10 9 11 14 11 10 11 11 11 11 10 10 11 9 7 8 8 8 8 8 9 8 8 10 10 15 22 24 24 28 38 44 46 51 51 52 62 65 60 59 65 75 84 90 92 83 73 67 64 62 57 49 43 38 33 32
36 36 36 35 33 26 20 21 20 17 13 12 16 15 13 18 22 23 24 20 12 8 7 7 7 7 6 6 6 8 9 9 11 10 10 13 12 10 11 10 10 11 10 12 13 10 8 9 9 9 8 8 8 7 6 7 8 18 26 26 25 30 39 41 40 44 50 52 54 59 65 62 59 69 79 85 91 87 74 64 64 63 55 50 45 38 33 32
34 35 37 34 31 24 15 19 26 20 12 12 15 13 15 22 23 21 21 18 12 7 7 7 7 7 6 6 7 7 7 7 9 10 10 11 11 10 11 10 10 11 10 11 12 10 9 10 10 9 9 8 7 6 8 7 7 18 25 26 27 31 38 40 36 41 52 55 48 51 63 61 55 64 76 85 92 92 79 62 59 58 51 51 46 38 35 32
31 35 37 33 34 33 23 20 20 14 14 14 12 14 21 24 22 22 21 16 12 8 7 7 7 7 7 6 7 7 7 7 8 10 10 11 11 10 10 10 10 11 10 10 11 10 10 11 11 10 9 9 9 11 11 7 9 20 24 23 26 30 37 38 33 41 51 51 49 54 62 60 56 58 67 77 79 84 84 67 56 55 51 50 47 39 35 32
28 33 36 34 37 36 27 24 16 11 16 14 12 20 24 21 20 22 21 14 10 8 6 8 8 7 7 7 7 7 7 8 8 10 10 10 11 11 11 12 11 11 11 10 11 9 10 12 11 11 10 10 13 16 14 11 15 23 22 22 27 32 38 37 38 48 46 43 54 60 61 63 61 57 58 61 59 68 85 75 55 52 53 50 47 41 34 31
24 30 33 31 30 25 20 22 18 14 15 13 17 21 20 21 20 17 16 11 10 9 7 8 9 7 8 8 8 8 8 9 9 9 10 10 10 11 11 12 11 12 12 10 10 10 11 11 11 13 13 13 15 17 18 18 19 20 20 24 28 34 43 42 45 51 40 41 57 57 59 66 57 47 46 50 53 60 78 79 58 48 51 49 46 43 36 31
23 26 27 25 24 19 15 15 16 16 15 15 19 18 17 24 22 15 11 8 9 9 7 9 9 8 9 8 8 9 9 10 10 10 11 10 10 11 11 11 10 12 12 11 10 10 13 15 17 20 20 17 16 16 20 21 20 20 21 24 26 30 39 38 39 43 36 44 58 55 58 60 46 39 39 39 44 50 66 79 67 48 46 47 44 42 37 30
21 23 24 21 17 14 11 13 15 16 17 18 17 16 21 25 20 14 11 8 9 9 7 9 9 8 9 8 9 9 10 11 10 10 11 10 11 11 11 11 11 11 11 10 11 10 13 18 18 17 20 22 19 17 18 19 19 18 15 19 21 22 29 34 38 39 35 43 56 60 58 48 41 47 44 37 36 44 59 76 77 60 45 43 44 41 37 31
21 22 21 18 17 14 11 13 17 16 18 18 15 17 23 23 15 12 11 9 9 9 8 9 9 9 9 9 9 9 10 12 11 10 11 10 11 12 11 11 12 11 10 11 13 11 12 15 14 12 15 19 21 20 21 22 22 19 16 20 20 16 21 33 38 35 37 47 50 52 49 35 37 49 46 40 40 47 61 71 78 72 50 42 44 41 39 33
26 27 24 24 28 25 17 15 17 17 18 16 15 18 20 18 14 11 11 11 10 10 9 9 9 9 9 10 10 10 10 11 10 11 11 11 12 12 12 12 11 12 12 13 13 12 13 13 13 15 16 17 20 22 23 22 24 27 26 24 22 19 22 39 51 42 38 46 43 40 40 32 35 43 42 42 45 51 63 68 75 77 60 46 45 45 41 35
31 30 28 33 36 29 23 19 17 19 19 14 15 18 16 15 14 12 13 13 12 10 9 9 10 10 10 10 10 10 10 10 10 11 12 12 12 12 12 12 11 12 12 13 12 12 14 14 13 15 19 21 19 20 25 23 24 35 37 25 23 28 28 41 65 60 42 42 40 35 38 35 37 46 47 47 48 48 55 65 76 83 73 54 46 49 45 36
41 34 28 32 31 26 23 20 19 21 17 13 15 17 15 15 14 13 14 13 12 11 9 9 10 10 10 11 10 10 10 10 10 10 11 12 12 12 12 11 12 12 11 12 13 12 13 14 13 13 18 24 18 19 30 29 24 33 38 29 27 38 39 39 52 52 40 41 41 36 37 35 34 43 50 49 48 45 47 59 73 83 85 69 50 48 47 38
47 31 22 28 29 25 21 20 22 21 15 13 13 12 12 14 14 14 14 13 13 12 9 8 9 10 10 10 10 10 10 10 10 10 11 12 13 12 11 11 11 11 11 11 12 12 13 15 16 13 14 20 19 20 28 34 32 30 30 27 26 34 39 38 41 41 37 39 41 39 37 34 35 45 51 51 50 48 45 53 63 70 81 81 61 47 46 42
36 18 18 30 30 23 21 23 24 18 14 14 11 10 12 13 14 14 13 14 13 11 9 7 7 9 10 9 9 9 10 10 10 10 11 11 12 12 11 10 11 11 11 11 11 12 14 16 17 13 11 16 20 19 20 31 40 37 33 35 34 32 32 34 37 34 32 35 38 40 35 32 43 57 60 57 54 50 47 50 55 56 65 80 73 54 46 47
26 12 20 31 29 24 24 24 21 15 14 14 10 11 14 13 13 13 13 14 13 11 10 8 7 8 8 9 9 9 10 10 10 10 11 10 11 12 11 12 12 11 11 11 11 12 14 16 17 14 13 15 18 19 18 22 28 30 36 44 41 34 32 37 38 29 26 29 30 36 38 36 48 58 56 55 50 46 47 47 50 51 53 67 75 63 54 53
23 13 21 27 27 28 26 19 17 17 15 14 12 11 14 16 15 13 13 13 13 12 10 8 8 8 8 9 9 9 10 10 10 10 10 10 10 11 12 13 13 11 11 11 10 14 17 17 17 15 15 16 18 22 22 22 23 25 32 37 32 27 28 33 37 32 29 29 26 35 45 47 55 58 54 54 52 48 50 47 46 47 45 53 65 64 60 58
19 16 23 28 26 26 23 17 18 20 15 14 14 11 13 16 14 13 14 13 12 12 10 9 8 7 8 8 9 10 10 11 12 10 10 11 10 11 13 14 14 12 11 11 10 15 20 20 19 17 16 18 20 22 22 23 28 30 31 31 28 29 29 27 32 36 33 28 28 36 43 48 59 60 55 56 54 51 51 48 47 49 48 54 61 62 62 60
21 20 20 26 27 23 21 18 19 19 15 16 17 13 14 15 14 14 14 13 13 12 10 9 8 7 8 8 9 10 10 12 13 11 11 12 10 13 13 13 16 12 10 13 12 12 17 20 21 20 20 22 23 24 25 25 29 29 30 32 31 31 33 35 44 47 37 27 29 34 37 49 63 62 56 56 55 54 54 50 52 57 60 62 62 62 62 58
27 22 17 23 25 21 19 18 19 18 17 19 18 15 16 15 14 15 15 14 13 12 11 9 7 7 7 8 10 10 10 12 12 12 12 11 11 13 13 14 16 12 14 23 19 11 15 20 20 23 24 23 27 32 31 28 30 29 29 33 32 29 32 40 48 48 37 32 35 39 41 51 61 61 58 57 57 61 63 59 61 67 69 70 68 66 64 63
27 22 18 19 20 18 19 20 22 21 20 21 20 16 17 16 15 16 16 15 13 11 12 10 7 7 7 8 10 10 10 10 11 13 13 11 11 12 13 15 14 18 35 41 25 13 16 20 20 25 25 21 27 37 35 32 33 31 33 36 31 27 29 32 34 36 40 42 45 54 58 57 59 62 63 63 62 64 66 65 67 72 75 79 82 77 72 72
29 28 25 26 23 19 20 21 22 23 21 21 21 19 18 16 17 18 17 14 11 9 11 10 8 8 8 9 10 10 11 11 12 14 11 11 11 10 14 14 11 29 51 42 20 15 19 19 19 23 24 19 24 31 34 38 38 31 36 40 33 28 29 28 31 39 49 49 48 60 67 62 61 64 64 67 68 67 69 69 69 72 75 82 89 88 80 74
31 34 30 35 33 23 23 25 24 26 25 23 23 22 21 18 17 19 18 15 13 11 11 10 9 8 7 9 10 10 13 14 14 14 11 13 13 11 14 13 10 25 36 23 13 18 19 17 17 18 18 18 21 25 28 36 39 33 37 42 37 33 31 30 35 42 47 48 47 56 63 60 61 65 66 69 69 66 68 71 70 72 75 79 86 89 85 77
30 34 31 34 34 29 28 29 30 30 28 27 27 26 23 20 19 19 18 18 17 14 12 11 10 8 6 7 10 12 15 16 16 17 15 14 15 13 14 14 11 14 16 12 15 20 17 17 18 16 17 17 18 23 25 28 31 31 33 35 35 36 35 34 36 37 41 47 47 50 58 61 62 65 68 71 68 64 66 72 75 77 78 78 82 88 87 82
34 36 37 35 30 29 30 30 32 31 28 31 32 28 24 22 21 21 20 21 20 16 13 12 11 9 7 8 10 11 13 14 14 15 16 15 16 16 14 14 12 12 12 11 15 19 18 20 21 19 19 17 16 19 22 23 26 27 27 26 28 31 33 34 34 33 36 43 46 47 55 63 65 66 68 68 67 67 69 77 84 85 82 80 82 87 89 86
47 46 52 45 33 31 31 29 32 32 30 31 31 28 27 25 24 25 24 20 20 19 15 13 14 12 9 10 10 9 10 10 9 10 12 12 14 14 13 12 12 12 14 13 15 18 18 19 22 23 22 19 17 18 20 22 24 23 23 25 26 25 28 31 34 38 40 42 45 47 53 62 67 69 70 67 65 67 71 80 86 86 85 85 83 85 89 88
55 48 54 51 39 34 31 28 31 31 29 30 30 30 30 27 25 28 27 22 19 19 17 17 20 17 12 11 11 9 7 8 8 9 9 9 10 10 11 11 10 11 14 15 16 18 17 17 20 23 23 21 18 19 21 23 24 25 27 32 30 28 33 35 32 36 43 47 48 50 55 63 67 68 71 69 65 69 75 81 85 85 87 89 87 87 90 90
Wind_Speed
13 13 13 13 12 12 12 11 11 11 11 11 11 12 12 13 13 14 14 15 15 14 13 12 10 11 12 11 11 13 11 5 4 6 6 3 3 3 5 12 11 14 15 12 11 9 8 7 6 7 6 5 3 1 1 2 4 4 3 2 1 3 1 1 4 3 2 7 10 9 9 8 9 7 6 7 8 8 7 6 7 7 8 12 18 21 21 19
13 13 13 13 12 12 12 11 11 11 11 11 11 12 12 13 13 14 15 15 15 14 13 12 10 11 11 11 12 12 8 4 7 5 2 3 4 5 8 12 13 16 14 11 11 10 8 7 8 8 6 3 2 0 1 1 3 3 3 2 3 5 2 0 3 4 2 7 10 8 8 7 9 9 7 7 9 9 9 9 9 12 13 15 19 21 20 18
13 13 13 13 12 12 12 12 11 11 11 11 10 11 12 13 13 14 15 15 16 15 13 12 11 11 11 12 12 10 6 6 5 3 5 1 6 7 10 12 14 15 10 8 9 8 6 5 8 7 5 3 1 1 2 1 2 2 2 2 5 5 3 3 3 4 2 5 10 8 8 7 9 9 6 6 9 9 7 9 10 12 15 16 18 19 19 17
13 13 13 13 13 12 12 11 11 11 11 11 11 11 12 13 13 14 15 15 16 14 13 12 11 11 11 12 12 8 5 7 1 7 7 1 7 9 12 13 15 13 7 6 6 6 5 5 8 6 5 3 2 2 2 1 1 2 3 2 5 4 0 5 3 4 2 5 9 9 8 8 8 7 6 6 6 6 6 8 9 12 17 18 17 18 18 16
14 14 14 13 13 12 12 12 11 11 11 11 11 11 12 13 13 14 15 15 16 14 13 12 11 11 11 13 10 5 5 4 4 6 6 2 7 10 12 14 15 10 5 6 6 6 7 7 8 6 5 3 2 2 1 3 2 2 1 3 4 4 2 5 2 4 5 7 9 9 9 8 8 6 7 6 2 2 5 8 9 12 17 18 17 17 16 15
14 14 13 13 13 12 12 12 12 11 11 11 11 12 12 13 14 14 15 15 15 14 12 11 10 10 11 12 8 2 4 1 4 3 4 3 8 10 11 14 12 8 6 7 6 7 9 8 8 5 4 3 1 1 3 3 3 3 2 4 4 4 4 2 3 6 6 8 9 9 8 8 8 7 7 4 4 3 6 8 10 12 16 18 17 16 15 14
15 14 14 13 13 12 12 12 11 11 11 11 11 12 12 13 14 14 15 15 15 13 11 10 9 9 11 10 5 4 1 6 6 2 3 5 9 9 11 13 10 8 8 8 8 8 8 9 8 4 4 3 0 1 3 1 2 3 2 4 4 5 4 0 5 7 8 8 9 8 8 10 9 7 6 4 4 5 8 9 11 14 17 17 16 14 13 13
15 15 15 14 14 13 13 12 11 11 11 11 11 12 12 13 14 15 15 15 13 12 10 9 7 8 10 7 4 3 5 8 5 2 4 8 10 10 12 12 9 7 7 7 7 7 8 9 8 4 4 1 1 1 3 2 3 2 2 4 3 5 5 2 5 7 8 7 7 8 8 9 6 6 7 4 6 8 10 10 12 15 16 15 14 13 13 12
15 15 15 15 14 14 13 12 12 12 12 12 11 12 12 13 15 15 15 14 12 9 8 8 6 7 9 5 7 1 7 4 2 5 6 8 11 12 11 9 8 7 7 6 6 7 7 8 7 4 3 1 1 2 3 3 1 2 3 3 4 6 4 1 4 6 8 5 6 9 8 6 4 5 7 6 7 10 11 12 13 14 15 13 13 13 12 11
15 16 16 15 15 14 14 13 13 12 12 12 11 11 13 14 15 15 14 12 9 6 5 6 5 6 6 6 8 0 5 2 4 7 7 8 10 12 9 6 8 7 7 7 7 8 7 5 4 2 4 2 2 2 2 2 2 4 4 5 6 9 5 1 5 7 7 5 4 8 7 5 4 4 4 6 8 10 12 12 13 14 14 13 12 12 11 11
16 16 16 16 16 15 15 14 14 13 13 12 12 12 12 13 12 11 9 7 5 5 4 3 3 5 6 8 4 4 4 2 4 7 8 8 10 11 7 5 7 7 7 8 9 9 6 3 2 3 3 1 2 1 1 1 3 4 4 6 7 9 8 4 5 5 4 4 0 5 6 5 5 3 3 9 10 10 12 13 13 13 13 12 12 11 10 10
16 16 17 17 17 16 15 15 15 14 13 12 12 12 11 11 10 9 6 3 2 4 3 2 2 5 6 6 4 5 5 3 3 6 8 8 8 7 5 5 6 6 5 7 9 8 4 1 3 5 2 2 3 1 2 2 3 4 2 3 7 8 7 6 4 2 3 3 2 2 5 5 7 5 5 12 11 10 11 12 14 13 12 12 11 10 8 9
17 17 17 18 17 17 16 16 15 14 13 12 11 11 9 9 9 7 3 2 2 3 3 3 4 4 5 1 6 3 5 3 3 6 8 8 6 4 4 4 4 4 4 4 5 6 4 1 4 4 2 4 2 2 1 2 3 3 2 3 5 5 4 5 5 3 4 3 2 2 4 5 10 9 7 11 11 11 11 11 13 12 11 11 10 9 8 9
17 17 18 18 18 18 17 17 16 14 12 11 10 10 8 8 8 5 3 3 2 3 2 4 5 3 4 4 5 3 3 2 4 6 8 8 6 5 5 4 3 3 3 2 1 5 7 3 6 3 1 4 1 3 5 4 3 3 2 4 3 1 1 3 5 6 6 4 1 3 4 4 9 10 9 11 12 13 11 11 12 11 11 10 10 10 9 9
17 18 18 19 19 18 17 17 16 14 12 10 9 8 7 7 6 2 4 4 3 3 2 4 5 3 3 5 4 2 1 3 4 5 8 9 7 6 6 5 4 3 2 2 1 5 7 5 6 4 2 2 3 6 5 3 3 3 2 3 1 2 2 4 5 7 5 4 4 5 4 2 6 9 10 10 12 13 11 11 12 12 12 11 10 10 9 9
18 19 19 19 19 18 18 17 16 14 12 10 8 6 6 6 3 3 4 5 3 3 3 2 2 5 2 5 5 4 2 3 3 3 6 7 4 5 8 7 6 4 3 3 3 5 6 6 4 3 2 3 6 5 3 4 4 2 2 2 1 1 3 5 5 5 4 5 8 8 5 1 2 6 9 11 13 13 11 11 12 12 13 11 10 9 9 9
19 19 20 20 20 19 18 16 15 14 11 10 7 5 5 4 2 3 4 6 4 3 1 2 3 5 1 4 5 4 3 3 4 3 6 5 3 7 9 7 7 6 6 5 4 6 6 5 2 2 5 5 3 3 4 6 4 3 1 1 1 1 1 2 3 4 4 5 7 9 7 2 2 5 9 11 13 13 12 12 12 12 12 11 10 9 9 9
19 20 20 21 20 19 17 16 15 12 10 9 6 4 4 3 3 1 2 4 2 1 1 2 3 3 3 5 2 2 3 3 3 4 5 5 6 7 5 5 7 8 8 7 6 7 6 4 4 4 4 4 4 5 5 2 3 2 2 2 2 0 2 3 3 3 5 5 5 8 9 7 4 5 8 10 12 13 12 12 12 12 12 11 10 10 10 9
19 20 20 21 21 19 17 16 14 9 8 9 5 3 2 2 2 1 3 3 2 1 0 0 2 2 3 3 2 2 1 2 3 5 6 6 7 6 4 6 8 8 8 8 8 7 5 4 5 5 5 6 6 5 3 2 4 4 4 4 4 2 2 4 4 2 2 4 5 6 9 9 7 7 8 9 12 13 12 11 10 11 12 11 10 9 10 10
19 20 20 21 21 19 16 15 12 7 7 8 5 3 1 1 1 2 3 5 2 3 4 3 3 3 2 2 1 0 2 4 4 5 6 7 8 7 6 7 7 7 6 6 8 6 4 6 7 6 4 3 4 4 5 4 3 6 6 4 4 3 1 4 3 3 1 4 3 5 7 7 8 8 9 10 12 13 13 13 11 11 11 11 11 11 11 10
18 19 20 20 21 19 16 14 10 4 5 7 4 2 2 6 4 3 4 3 1 2 4 3 3 5 4 4 2 1 3 5 5 5 7 7 8 8 6 6 7 6 4 3 5 5 4 8 6 4 1 2 3 4 6 7 7 7 6 5 3 2 1 4 3 3 2 4 1 3 6 7 8 9 9 9 12 14 14 13 13 13 12 11 12 12 11 10
18 19 20 20 20 18 15 13 7 2 3 4 3 2 4 6 4 3 5 3 2 1 4 2 3 4 3 3 2 3 4 4 6 6 6 6 8 5 4 5 6 4 5 4 4 5 7 8 5 4 2 2 3 3 5 7 8 7 5 5 3 1 0 2 2 3 2 4 0 3 4 5 6 7 8 8 11 12 13 13 13 13 13 11 12 12 12 11
18 19 20 20 20 18 15 11 5 1 2 1 3 4 4 4 4 3 5 5 1 3 3 2 3 1 1 1 2 5 5 2 5 7 7 8 5 3 3 5 3 3 6 8 6 5 6 5 5 5 4 5 6 5 7 7 8 8 5 5 4 1 2 1 2 3 2 4 2 0 3 3 4 6 6 8 9 7 7 10 11 12 12 12 13 12 12 12
18 19 19 20 19 17 15 9 2 1 2 2 1 3 2 5 4 4 5 4 1 3 2 0 2 1 2 2 2 6 1 2 1 6 9 8 3 2 3 2 3 4 6 7 7 6 4 2 4 4 5 7 8 7 8 8 7 9 8 7 6 4 4 3 1 1 3 5 4 4 3 2 5 7 6 6 6 3 5 10 11 11 11 11 12 13 13 12
18 19 19 20 18 17 14 6 2 1 3 3 2 1 3 8 4 5 5 4 2 3 4 3 1 1 2 1 3 3 1 3 1 4 8 8 3 2 1 1 3 2 3 5 7 7 5 4 5 6 7 8 9 8 9 9 7 8 8 7 6 4 3 2 1 2 4 4 5 5 4 1 5 8 8 6 6 8 9 11 13 12 11 11 12 13 14 13
18 19 20 19 18 17 10 1 2 3 5 3 3 1 5 9 3 5 4 4 4 3 2 3 2 2 2 2 3 3 3 4 3 3 6 6 3 3 1 2 2 1 3 4 5 4 4 6 7 9 8 10 10 9 10 9 8 7 3 1 2 2 2 2 3 4 5 1 4 3 6 1 3 8 9 8 9 13 12 13 14 11 10 12 12 12 13 13
18 19 20 18 18 17 7 1 3 5 4 2 4 3 7 8 2 6 4 4 4 1 1 2 1 1 2 1 1 4 1 5 5 5 5 5 3 4 3 2 1 2 3 4 3 2 3 6 9 10 10 10 8 8 9 9 10 5 3 1 3 3 2 2 4 5 4 2 2 4 5 4 2 5 9 10 11 14 15 15 14 12 12 13 13 13 13 14
19 19 20 18 17 16 8 5 6 4 2 1 3 4 7 4 5 5 6 2 3 0 1 3 2 0 0 0 3 4 2 2 4 6 5 4 4 4 4 2 2 1 3 5 2 4 3 7 8 8 9 8 7 6 5 9 11 4 2 1 3 2 2 2 4 5 3 4 4 4 4 4 2 4 8 11 11 13 16 17 15 16 16 14 14 15 14 14
20 19 19 18 16 13 8 6 5 5 2 2 3 4 5 3 5 4 5 1 2 1 0 2 2 3 2 3 4 3 2 2 1 4 6 5 5 6 4 1 4 4 4 7 5 2 2 2 2 6 7 5 4 4 4 9 10 4 3 4 2 2 3 2 5 4 3 6 6 2 6 4 2 5 7 9 9 11 14 15 15 16 16 15 15 16 15 14
21 19 18 18 14 8 7 6 7 6 5 4 3 3 3 5 4 5 5 1 1 2 1 1 1 1 3 5 5 4 4 2 2 4 6 4 6 6 4 2 5 6 5 6 7 4 1 2 1 6 7 4 2 2 4 9 7 5 7 7 5 5 4 3 4 3 5 6 3 2 6 5 3 4 7 8 9 11 11 12 15 17 16 16 15 15 15 14
22 19 17 17 11 6 6 4 5 8 7 3 2 2 6 4 4 5 3 1 0 2 2 1 1 1 3 3 3 4 4 4 4 5 5 4 6 7 5 5 4 5 6 5 5 5 5 5 3 4 5 5 4 4 5 7 7 7 8 6 5 5 4 5 5 4 7 5 1 1 5 6 4 2 6 9 9 10 11 12 16 19 18 17 15 15 15 14
22 18 16 16 13 10 8 2 4 8 7 2 3 5 5 4 5 5 1 2 2 1 1 1 2 1 1 2 2 4 3 3 3 3 2 2 4 3 2 3 2 4 4 2 3 4 5 4 3 4 4 7 9 6 4 6 8 9 8 7 6 5 4 6 6 6 6 2 3 3 4 5 6 4 5 9 10 11 11 11 14 17 18 17 16 16 15 14
21 18 16 14 13 11 10 6 5 8 4 3 5 5 4 5 5 1 2 3 0 3 1 1 3 1 2 3 4 3 2 2 3 2 2 2 2 2 2 2 4 5 2 1 3 3 4 5 5 4 5 7 10 6 4 6 7 8 8 7 7 7 6 8 7 6 6 2 4 4 4 4 5 4 4 7 10 12 13 11 11 15 18 18 17 17 16 16
21 18 15 13 11 9 9 9 9 8 5 5 6 5 5 6 2 1 2 3 2 2 1 2 2 2 3 2 3 1 2 3 3 3 3 3 3 2 4 3 1 4 4 3 3 3 2 4 5 2 2 6 10 7 5 4 5 8 8 7 9 7 6 6 5 5 5 3 3 5 4 3 1 2 2 2 6 10 12 10 8 11 15 16 16 17 17 17
19 16 13 9 7 6 8 10 10 9 7 6 6 6 7 6 3 3 3 2 2 2 2 1 3 5 5 2 3 1 2 2 4 4 3 2 1 1 1 3 3 3 4 4 0 1 5 1 5 2 1 4 9 6 4 5 5 6 6 7 9 7 6 6 7 6 3 4 4 4 3 3 0 4 4 1 3 9 10 10 9 11 14 15 14 16 17 16
16 12 8 3 1 1 5 10 12 10 7 6 6 7 6 4 1 2 1 2 1 1 2 4 5 6 4 4 5 4 1 1 3 4 3 1 1 1 1 2 3 3 4 4 2 1 4 1 5 1 2 4 7 5 4 5 3 2 5 7 4 3 5 4 6 6 4 5 5 3 4 3 1 4 6 5 5 9 10 11 11 11 13 15 14 14 15 15
15 8 2 2 0 2 3 10 13 9 6 6 7 6 4 2 1 1 2 1 0 1 5 5 3 4 4 3 4 5 4 3 3 3 2 3 2 1 0 1 2 4 5 4 3 2 3 1 4 1 1 2 4 6 5 1 2 1 4 3 3 1 4 2 3 5 5 5 4 3 5 4 2 1 4 7 8 9 11 11 11 11 11 14 14 13 14 16
13 6 2 2 3 4 4 11 13 8 5 6 7 6 4 2 2 2 2 1 1 3 6 5 1 2 4 3 2 4 3 3 4 3 2 2 2 1 1 1 2 2 4 5 4 1 4 5 3 1 2 4 3 5 5 4 2 4 3 2 1 4 5 5 4 6 5 5 4 4 6 4 3 1 1 5 7 8 11 12 12 12 12 12 13 14 15 17
8 5 3 3 5 3 8 14 11 6 6 6 7 6 4 4 4 3 2 2 2 4 5 4 2 2 4 3 1 3 3 3 1 2 2 1 1 2 1 1 1 2 2 4 5 2 3 6 1 2 1 3 4 5 4 5 3 4 4 4 3 2 3 3 3 5 6 5 4 5 5 3 1 3 4 2 2 4 8 10 11 13 14 11 11 12 15 16
5 4 2 6 4 6 12 11 7 6 6 6 5 3 3 4 5 4 3 3 4 4 3 3 3 4 4 3 3 2 3 4 3 2 2 1 2 3 2 1 2 0 0 3 4 2 2 4 4 3 3 3 3 2 3 4 6 4 4 5 4 2 2 3 4 5 6 6 4 5 6 2 2 4 6 6 4 4 6 8 10 11 14 13 11 12 13 13
5 3 2 6 4 13 10 7 6 5 6 5 4 4 3 2 4 5 4 4 5 3 3 3 4 3 3 3 3 3 3 4 4 3 2 2 3 2 3 1 3 2 3 5 2 2 2 3 5 4 3 4 0 4 7 4 6 6 5 5 6 4 3 4 5 6 6 7 5 5 6 2 3 3 5 6 5 3 4 6 8 9 12 13 12 12 11 10
5 2 3 4 7 10 3 7 5 3 6 4 2 4 2 1 4 4 4 5 5 4 3 4 5 4 4 4 2 2 4 4 3 3 2 2 2 1 3 2 3 4 4 4 1 3 3 4 6 6 3 1 4 3 7 2 3 5 4 4 6 3 3 5 4 4 5 6 5 3 4 3 3 4 4 5 5 4 3 4 5 6 9 12 13 12 10 10
3 1 4 3 4 4 5 7 5 4 6 2 0 3 3 3 5 4 4 6 5 5 5 5 5 5 5 5 3 4 5 3 3 3 2 2 2 2 3 1 3 4 4 3 1 2 2 3 5 5 2 2 4 3 4 2 2 6 3 2 4 3 3 3 2 4 5 5 4 2 3 2 2 3 3 4 4 3 2 1 2 3 4 8 11 10 8 10
3 1 3 3 3 5 6 6 5 6 7 4 4 6 5 4 6 5 6 7 5 4 6 6 6 5 4 4 4 5 4 3 4 3 3 3 3 5 2 1 3 4 2 3 3 1 2 2 4 5 5 5 6 6 3 2 5 5 2 2 3 2 2 3 2 4 6 5 5 5 4 1 1 2 2 3 3 3 2 1 3 4 5 6 8 8 8 8
3 2 2 2 4 6 6 4 4 5 6 7 7 9 7 6 6 6 5 5 4 5 5 4 4 5 4 5 6 5 5 5 4 3 3 4 4 5 3 1 3 4 1 3 3 3 3 3 3 5 6 7 5 4 3 2 4 4 2 2 3 2 3 4 3 5 6 4 3 4 3 1 1 1 2 3 3 3 3 2 4 5 6 5 5 6 7 8
3 2 3 4 5 6 5 3 4 5 4 6 7 8 9 8 6 5 5 5 4 5 6 3 3 6 7 7 8 7 7 7 4 3 5 5 4 5 4 1 2 1 3 1 5 4 3 4 4 5 7 6 4 3 2 1 4 5 2 4 5 3 3 4 3 3 4 3 2 2 3 3 2 1 2 3 3 2 2 1 2 4 5 6 4 2 4 6
3 2 0 2 3 5 6 4 6 6 3 4 4 5 8 9 6 6 5 4 3 3 6 5 6 8 8 9 9 7 6 7 5 5 6 5 4 4 5 4 3 3 3 3 5 4 4 4 4 4 6 6 5 3 2 2 6 6 2 7 7 2 3 4 1 1 2 4 3 1 3 4 2 2 3 3 2 3 2 1 1 2 2 4 5 3 3 5
2 2 2 2 2 4 4 3 4 5 4 5 3 3 8 10 8 6 5 4 3 4 5 5 8 11 10 9 8 6 6 7 7 7 6 4 4 5 6 7 6 5 5 6 4 3 6 5 3 4 6 5 4 4 2 3 5 3 2 6 7 5 6 4 0 2 2 3 3 2 4 4 3 3 4 3 2 3 3 3 1 2 2 3 5 6 4 5
2 2 1 1 3 2 2 1 1 5 6 5 4 6 8 10 9 7 3 3 5 6 5 7 9 12 12 11 8 6 6 7 6 7 7 6 6 5 5 6 6 6 7 7 4 3 6 4 2 5 8 6 5 4 4 5 6 5 5 6 6 7 6 5 3 2 2 3 3 3 4 3 2 3 3 3 2 3 5 5 4 2 3 3 4 5 4 3
3 3 2 2 4 3 3 2 3 5 5 4 5 7 8 10 9 6 3 5 6 5 5 7 7 7 9 9 9 9 8 8 7 6 7 8 6 5 5 4 3 5 6 6 3 4 4 2 1 4 8 7 6 5 5 6 6 8 8 7 7 8 6 6 7 4 3 3 2 3 5 3 1 1 1 1 2 4 6 7 5 4 2 2 2 3 4 3
4 4 3 5 4 1 3 4 3 5 5 5 6 5 7 9 6 3 4 7 7 5 3 3 3 3 5 7 11 12 10 10 9 5 6 7 5 4 4 3 3 4 4 4 3 4 5 3 2 5 7 5 5 5 6 6 7 10 10 8 9 9 7 7 6 4 5 6 4 5 4 2 3 1 1 1 2 4 5 6 5 3 3 3 1 2 3 2
4 3 2 5 3 1 3 3 4 5 4 3 3 3 5 5 1 2 5 6 6 5 1 1 3 3 6 9 12 12 9 8 6 1 2 4 3 3 3 2 3 4 3 3 3 3 4 5 3 4 6 4 3 3 5 6 8 8 6 5 6 7 8 9 8 7 6 6 5 5 2 3 3 3 3 2 2 4 4 4 3 4 6 6 5 4 5 4
Wind_Direction
21 18 17 17 15 15 13 12 8 5 2 359 0 0 357 354 351 348 345 344 345 348 350 348 337 334 333 331 330 332 342 345 297 234 228 283 213 186 160 168 167 162 161 158 166 168 171 186 180 185 204 211 229 289 2 314 318 290 274 271 119 102 156 126 117 124 138 145 142 156 164 146 137 129 127 137 128 127 130 123 112 101 102 109 118 128 133 137
16 14 12 10 9 8 5 4 1 359 358 357 356 354 353 350 347 345 343 341 341 344 348 344 336 335 335 335 332 338 1 324 257 223 249 293 183 171 160 163 165 161 161 170 180 187 192 186 176 190 213 210 174 105 319 303 312 306 326 349 62 81 123 13 98 136 192 155 144 159 168 155 145 140 156 159 141 143 139 135 129 114 115 120 126 132 135 142
11 10 8 6 5 3 1 359 355 355 353 352 350 348 347 344 343 341 339 339 338 341 344 340 336 334 337 337 333 347 354 282 241 92 22 298 168 162 163 162 161 161 167 182 188 201 216 194 180 197 223 218 137 237 276 216 298 326 340 11 56 51 119 125 129 172 212 151 151 160 163 157 148 147 170 166 150 156 149 145 143 132 134 135 135 137 141 147
7 7 6 4 2 0 358 354 352 351 349 347 344 343 341 338 338 335 335 335 334 339 339 338 336 333 341 337 335 352 309 264 126 57 17 111 162 161 164 161 158 158 159 171 180 207 220 193 188 211 236 214 137 236 273 88 313 330 335 5 51 359 202 115 130 195 209 172 160 156 158 154 151 155 170 165 153 160 158 152 150 145 144 143 142 143 146 149
5 5 4 2 0 358 355 352 350 347 346 343 339 339 336 334 333 331 330 329 330 335 335 336 334 334 342 335 338 354 278 252 82 44 16 106 158 158 165 166 161 159 162 166 165 187 193 186 191 214 234 222 166 217 10 53 314 301 12 18 33 332 334 88 130 209 201 178 159 159 162 151 151 166 178 170 109 107 147 149 146 147 146 146 146 146 149 152
4 4 3 1 358 356 353 351 347 343 342 338 336 335 331 330 329 326 324 323 326 329 331 334 335 338 340 338 343 307 265 47 72 37 32 123 151 149 165 169 166 165 177 174 164 178 182 185 198 209 223 224 211 296 20 30 302 288 79 47 22 1 2 61 183 202 194 173 163 168 158 152 163 165 180 172 45 71 136 141 139 141 146 145 146 149 152 154
4 4 2 360 358 355 352 349 344 341 337 333 333 329 328 326 323 321 319 319 321 323 327 331 336 340 342 346 328 250 210 72 66 50 88 139 146 147 157 160 164 170 183 182 172 181 179 191 203 210 226 221 102 9 353 321 256 284 26 46 23 25 9 74 170 180 184 171 161 161 155 167 176 157 168 157 79 120 134 133 135 138 145 145 147 152 151 153
3 3 1 359 358 355 351 347 343 338 333 331 330 327 325 321 318 317 315 316 316 318 321 328 339 339 345 350 277 223 92 64 54 80 119 144 152 153 151 154 167 180 197 193 182 190 188 200 205 207 231 217 32 328 319 266 212 269 30 51 29 35 22 82 155 169 163 159 152 156 166 170 167 145 151 131 112 133 132 133 137 140 146 148 151 152 151 154
2 2 1 360 358 355 351 346 341 337 333 331 329 326 322 318 316 314 314 314 310 312 317 325 338 337 348 329 265 204 77 39 66 114 129 150 162 162 158 163 177 191 203 198 199 202 196 208 203 218 275 7 338 304 306 276 188 52 58 64 55 62 43 145 154 152 140 141 157 159 162 151 139 151 144 123 128 137 137 140 142 147 151 151 154 151 152 155
1 1 1 1 359 355 350 345 342 338 335 333 329 325 322 318 317 318 318 314 306 305 311 323 339 340 338 285 265 77 79 57 121 129 143 159 171 171 177 186 185 197 200 195 203 201 207 229 209 241 289 278 287 311 323 303 77 91 94 80 71 85 88 150 119 119 119 110 166 171 159 143 154 193 162 135 147 149 146 145 147 153 153 154 154 150 154 156
0 0 0 2 360 356 350 345 343 341 339 335 330 328 327 324 325 330 327 317 308 303 314 330 336 341 305 268 287 69 114 145 130 143 153 162 175 178 191 199 193 205 198 197 203 201 218 253 242 240 261 284 271 264 85 77 113 124 121 97 90 96 99 98 85 89 110 85 219 178 152 147 165 229 182 149 158 160 152 148 154 158 154 155 154 151 156 156
359 359 360 0 359 357 350 346 345 344 342 335 332 335 336 337 342 346 341 337 324 309 339 352 341 349 291 264 34 73 144 160 153 156 155 163 175 184 201 198 205 216 208 210 204 203 227 277 245 246 294 329 262 218 91 141 143 132 183 136 114 106 98 107 103 85 134 98 9 160 155 175 188 204 160 150 160 164 160 155 156 159 155 157 157 154 157 155
359 358 359 358 358 356 350 347 346 346 342 335 338 344 348 350 350 354 14 72 19 338 357 0 9 342 282 315 70 112 162 158 175 168 167 170 170 178 190 187 209 228 225 232 208 201 211 250 286 283 320 293 281 91 137 193 175 150 219 224 142 118 88 109 137 157 149 122 7 232 204 190 189 192 156 154 163 165 168 162 160 161 159 161 161 161 160 157
359 359 359 357 356 356 350 347 347 345 341 339 343 350 355 350 350 9 74 77 28 11 7 9 25 312 268 77 96 177 162 167 189 180 182 178 166 155 159 168 184 209 215 237 217 193 196 227 292 286 230 284 348 141 194 191 198 195 211 232 189 96 88 132 157 176 166 148 198 239 232 190 180 181 164 165 168 170 175 167 166 164 162 166 164 167 163 159
1 0 359 357 356 354 350 347 346 343 341 345 350 353 352 346 355 63 95 55 16 32 36 16 23 283 239 100 128 190 163 193 183 189 191 183 179 152 146 153 147 160 187 205 182 176 192 225 261 250 179 258 242 211 212 203 217 234 244 229 185 57 169 157 160 191 187 157 173 211 228 180 173 172 166 175 175 178 182 171 172 169 165 170 167 171 167 160
1 360 359 357 357 353 350 348 345 343 343 350 354 350 351 349 16 112 81 33 2 52 49 7 0 273 290 86 143 178 177 175 135 160 176 185 205 131 136 146 137 145 158 157 154 158 190 223 253 286 253 216 226 225 231 235 214 211 263 277 11 42 160 147 150 195 194 155 177 212 227 137 155 176 172 181 182 186 189 177 176 174 169 172 171 173 168 160
359 359 359 357 357 353 349 348 345 343 345 352 356 355 0 8 97 116 59 20 12 70 41 296 286 275 321 104 169 158 117 116 96 120 154 175 183 132 141 149 141 148 148 146 162 165 182 210 212 237 237 231 243 233 230 237 208 171 239 280 281 336 76 128 142 167 182 180 191 210 223 204 144 180 187 187 187 191 194 184 179 177 172 172 177 174 167 166
355 356 357 356 357 353 348 349 344 343 348 354 358 359 15 53 103 99 10 12 16 163 210 235 255 265 118 125 174 80 82 117 116 134 143 150 157 152 158 154 147 154 156 156 173 184 182 199 215 217 213 216 231 226 227 279 20 33 6 326 267 248 67 50 67 137 180 209 207 200 212 217 176 173 201 197 192 198 197 189 183 178 174 173 180 177 168 169
351 354 355 354 356 352 349 347 342 344 355 359 360 345 11 82 126 219 234 241 263 256 327 81 285 315 69 90 65 58 88 156 162 164 151 149 161 170 164 153 158 170 175 169 175 190 192 187 206 223 212 201 211 233 258 14 21 349 341 326 314 317 75 58 54 110 189 232 220 213 219 218 197 183 205 205 197 203 200 191 189 181 176 176 181 180 170 171
349 352 352 352 354 353 348 344 341 346 4 8 350 285 285 330 212 175 218 227 271 346 333 339 327 307 329 36 46 85 160 176 186 167 156 163 170 168 156 159 174 191 198 175 165 173 203 207 207 217 213 179 183 217 255 271 276 292 302 301 309 308 66 82 81 102 222 251 209 215 228 220 209 192 198 209 201 204 203 192 189 186 179 178 183 180 172 173
346 348 350 351 353 353 347 342 339 341 22 25 346 274 16 8 358 11 337 250 155 331 295 315 308 288 302 324 331 265 187 176 169 146 149 166 187 185 157 177 198 187 184 154 145 150 209 225 208 191 149 105 169 203 233 254 261 268 284 295 293 277 41 64 55 93 204 261 167 183 229 220 207 194 192 208 207 205 205 196 190 188 183 179 184 180 174 174
344 346 348 349 351 352 346 340 336 326 36 35 345 5 48 20 349 327 312 276 147 196 262 260 266 273 277 285 287 241 235 172 146 143 156 179 203 207 152 196 219 166 150 177 175 167 209 228 189 158 178 186 202 224 236 249 260 260 265 276 275 250 63 82 99 115 181 260 141 147 234 230 195 185 191 209 218 213 208 205 195 189 186 181 184 181 177 178
343 344 345 347 349 350 344 338 330 319 26 335 330 36 56 7 320 250 258 278 155 162 219 239 267 275 167 189 155 214 236 130 137 138 161 195 203 225 205 191 205 154 168 196 212 195 208 219 169 161 189 210 216 225 243 251 250 249 249 259 272 324 313 297 131 132 190 259 298 186 244 242 184 180 197 215 227 230 231 229 210 194 193 187 184 183 181 181
342 342 343 345 346 348 344 337 311 312 1 256 305 50 37 354 326 234 247 277 205 150 174 30 310 326 58 71 166 220 231 73 159 128 158 202 183 180 230 185 186 190 182 206 226 232 235 123 119 172 196 221 231 224 238 250 245 241 240 248 267 294 307 318 58 141 212 226 241 244 245 229 191 190 202 211 220 242 257 248 226 202 200 194 189 187 185 184
340 340 341 342 344 347 340 324 179 322 311 212 186 79 349 351 332 224 257 263 174 140 161 165 204 91 60 120 181 245 215 135 172 119 163 207 204 170 176 155 234 198 140 202 222 241 247 142 146 205 206 218 234 232 233 242 254 248 236 237 258 284 299 291 246 248 251 214 184 227 267 207 181 195 201 189 195 212 214 222 221 207 200 198 196 193 188 185
338 339 339 338 341 343 335 239 139 316 289 207 181 235 329 339 309 199 259 252 163 115 160 178 185 116 101 176 172 256 233 143 94 116 176 209 246 260 219 156 234 48 107 208 223 243 232 164 190 223 217 217 227 236 235 235 252 247 215 189 234 245 243 239 257 267 281 311 128 234 282 306 174 201 202 178 189 210 208 207 213 209 203 200 198 197 191 186
338 337 335 335 339 341 335 290 324 296 264 173 182 246 321 325 224 182 253 242 143 73 268 138 91 86 75 72 217 263 264 107 126 153 181 210 208 247 250 171 179 113 148 240 231 193 184 177 202 223 224 224 223 232 226 222 245 251 85 95 223 217 216 227 266 271 294 324 164 216 264 282 248 200 189 177 189 209 212 209 208 209 211 205 200 201 195 191
338 336 332 332 335 334 323 300 304 276 244 123 185 270 319 302 187 200 261 246 103 9 262 96 82 170 170 217 243 267 10 92 182 148 147 208 203 233 251 224 291 150 178 257 261 109 160 198 203 211 222 229 226 236 221 214 238 254 82 212 219 207 205 218 266 275 301 294 262 196 200 261 276 156 172 181 194 213 215 212 207 206 208 204 204 204 198 195
337 335 329 326 327 329 318 290 276 259 232 186 219 299 313 214 191 238 260 273 86 170 110 87 148 180 213 213 211 238 228 229 269 111 146 201 214 247 280 332 287 273 215 251 281 54 117 201 228 226 228 236 230 237 236 231 237 208 169 211 190 181 195 215 261 276 278 275 286 184 179 253 295 150 167 182 200 217 214 212 210 206 203 200 204 206 201 197
335 334 327 322 326 333 317 286 253 238 197 190 261 311 235 205 223 242 229 226 86 136 141 259 197 212 244 216 178 175 199 187 98 140 174 195 199 222 279 296 265 269 237 233 256 266 187 136 275 250 250 290 307 240 233 243 240 176 189 209 203 203 206 225 241 263 265 259 300 127 181 243 289 159 169 187 204 208 200 205 208 203 201 200 201 204 202 198
332 333 323 316 316 304 291 284 220 204 186 194 296 243 218 219 245 248 219 135 169 151 174 203 51 306 253 236 159 147 169 150 148 191 190 187 196 202 224 221 218 242 233 214 220 220 193 191 203 221 245 267 252 226 213 219 209 190 205 213 213 219 218 235 225 225 254 250 84 108 191 226 261 198 183 197 204 197 188 200 205 198 197 199 199 202 203 199
330 328 317 307 298 271 254 257 150 173 181 237 261 229 233 225 226 241 155 147 220 171 127 65 27 32 209 232 116 124 166 141 149 220 210 199 203 185 238 260 251 237 222 177 195 184 172 187 177 173 210 231 227 215 187 194 199 206 213 207 214 221 213 238 234 221 244 239 124 166 193 224 253 257 220 207 203 193 185 198 210 201 194 195 197 199 202 200
329 325 314 301 289 266 245 238 196 185 201 261 241 230 246 238 225 218 152 181 94 43 49 326 349 11 226 214 136 127 212 133 133 181 165 240 235 125 103 1 314 280 292 11 258 213 160 149 161 182 185 209 227 228 200 196 204 216 216 207 218 226 226 235 237 234 243 219 139 170 204 242 255 253 232 220 210 195 183 188 213 212 199 194 195 197 200 201
329 325 314 300 285 264 237 222 211 212 233 241 228 221 229 234 217 104 198 181 72 48 216 295 303 211 218 224 107 137 232 133 140 196 183 219 238 148 126 104 10 286 283 277 279 293 270 152 145 203 154 191 224 244 259 237 215 221 221 219 227 236 248 250 248 246 254 255 170 163 199 256 262 117 113 244 214 188 177 176 199 221 214 203 196 197 200 200
332 329 319 304 288 257 222 209 198 201 216 223 225 220 222 229 200 189 203 135 113 205 190 231 248 218 196 155 125 178 302 119 159 216 228 238 272 38 68 84 60 319 286 273 314 302 277 86 92 30 353 215 228 230 258 264 230 212 221 231 235 247 257 260 268 263 264 281 243 190 225 274 58 135 143 154 173 165 166 170 184 213 223 219 209 201 200 200
337 334 322 309 310 255 210 201 186 185 214 228 223 219 224 244 234 190 162 93 135 248 229 207 218 229 207 172 167 168 250 268 183 211 221 224 248 36 4 41 37 340 313 304 316 261 262 117 95 135 187 214 245 225 204 250 266 172 224 231 222 277 275 261 272 261 236 262 261 231 254 262 205 175 167 163 166 164 168 177 187 202 217 223 219 205 199 199
338 325 301 117 58 290 217 188 179 187 223 231 226 229 230 233 234 138 107 109 178 269 257 225 193 240 237 200 184 167 180 204 201 222 198 172 185 126 188 86 35 338 336 318 295 350 308 275 104 126 211 141 254 239 177 184 326 246 230 229 117 249 264 209 261 261 239 251 268 268 270 271 278 223 167 179 191 184 180 182 187 194 208 220 218 208 201 197
331 298 215 81 326 280 203 173 175 196 227 227 229 237 248 212 164 138 131 156 228 224 242 240 179 237 246 239 188 153 189 201 172 212 236 184 164 107 233 189 92 11 344 303 268 29 318 277 122 103 310 84 139 215 169 132 238 250 254 277 219 235 233 195 230 267 258 257 268 267 270 274 282 322 149 197 205 201 192 184 188 192 197 216 219 211 205 200
305 250 180 27 334 251 173 165 178 216 223 220 224 220 232 212 154 144 176 199 240 227 231 238 216 218 230 261 265 151 206 245 192 216 242 209 143 130 240 282 117 119 25 310 293 348 306 279 229 149 200 115 147 217 209 154 191 261 271 255 231 255 272 221 228 264 263 261 271 279 275 267 306 349 352 324 265 236 211 189 192 196 191 202 217 214 206 202
279 241 126 18 347 166 156 165 195 228 212 222 240 202 200 205 173 167 201 222 235 235 245 221 200 215 212 234 268 213 212 251 270 264 240 179 170 158 145 289 286 136 334 281 287 305 262 268 271 197 176 200 193 278 282 173 171 214 234 237 220 189 252 252 235 248 263 265 260 274 276 261 59 0 335 326 318 285 244 207 200 201 192 191 206 214 207 195
267 235 85 29 107 142 149 191 211 221 213 227 249 210 188 210 195 180 185 224 239 245 289 258 227 240 230 219 233 217 217 236 243 258 250 197 210 192 108 31 306 312 273 252 251 329 295 273 276 263 239 242 203 357 308 231 184 202 193 217 233 206 200 233 238 245 263 270 264 277 287 310 45 1 327 323 323 314 270 227 206 203 197 188 194 211 206 189
252 237 59 56 138 144 194 224 195 221 230 223 238 211 175 188 221 199 178 205 222 219 237 245 242 248 240 238 237 215 228 233 226 240 247 214 232 247 87 62 298 290 286 278 41 29 319 283 277 273 269 301 58 358 293 250 186 221 208 222 239 232 234 234 239 260 260 252 252 286 297 311 13 358 340 339 342 346 312 241 211 207 200 186 186 199 197 186
272 357 73 87 167 202 255 218 184 222 227 206 25 200 176 194 218 205 188 200 207 209 211 213 226 231 227 229 229 225 227 225 229 243 260 233 196 97 90 104 263 254 265 286 100 114 263 275 278 267 230 131 126 189 270 321 249 230 205 247 255 254 259 239 250 289 270 243 237 264 267 263 12 10 355 345 350 355 339 209 178 164 164 172 175 180 189 190
328 311 101 92 180 220 238 223 211 217 208 204 218 209 201 221 232 220 208 206 200 210 217 211 217 222 218 218 225 227 219 214 218 216 251 247 156 116 117 205 255 250 263 348 17 1 275 295 289 270 238 208 195 194 206 261 270 246 158 158 240 236 199 181 189 259 256 249 261 273 268 247 31 18 12 353 7 26 25 85 116 114 121 151 168 175 197 206
299 237 164 129 172 208 236 261 268 243 211 208 219 218 210 209 222 233 238 227 220 236 234 215 215 218 199 198 217 222 220 238 241 201 223 242 160 142 158 220 270 268 21 22 329 305 303 299 293 282 262 245 243 247 234 229 252 243 165 169 206 199 183 178 192 229 234 249 267 265 274 315 334 340 29 9 11 39 32 43 89 101 108 121 150 177 198 214
295 227 182 164 170 207 238 266 277 269 239 216 221 220 218 213 194 197 236 238 219 236 245 229 211 213 200 200 217 218 212 228 245 211 217 226 188 163 155 155 261 297 49 5 263 271 295 277 274 287 283 285 297 276 267 327 251 227 233 250 227 195 204 228 246 228 226 271 271 234 267 283 279 300 25 13 357 30 42 28 80 99 111 114 115 149 183 203
292 294 227 168 177 205 218 220 233 246 252 236 225 204 218 226 197 173 208 227 200 216 234 225 211 212 202 200 218 223 208 212 220 222 226 229 212 165 158 196 221 136 121 228 238 254 275 256 236 250 268 287 308 291 140 154 238 225 243 268 253 228 236 243 266 135 200 248 249 216 277 275 278 335 19 31 353 6 38 23 61 92 109 120 122 133 171 187
293 327 20 350 276 212 211 214 220 237 238 230 237 227 225 227 214 199 198 196 198 213 220 213 212 220 217 207 217 225 207 206 214 222 226 224 223 200 182 205 209 164 187 218 207 246 278 269 224 248 261 261 280 287 204 193 236 218 196 264 275 287 281 280 67 133 184 254 263 301 295 278 293 334 7 39 2 350 27 32 53 121 142 152 141 141 163 181
311 297 82 315 285 273 289 315 247 248 236 221 233 238 233 230 223 218 208 198 208 207 223 233 219 220 224 217 220 225 210 214 221 217 221 223 223 229 219 213 203 190 220 231 190 211 273 277 221 262 273 256 242 264 262 248 256 244 225 237 259 273 283 298 280 218 229 280 287 296 282 269 297 324 349 29 35 33 48 42 24 47 133 159 151 131 129 142
332 327 13 290 268 271 285 267 238 245 226 203 226 228 232 241 233 219 213 231 228 193 203 241 240 232 233 223 225 229 218 227 242 219 208 218 220 228 247 258 224 204 228 245 206 185 235 266 234 261 269 254 234 244 258 262 268 264 254 246 254 264 263 258 257 258 264 270 282 282 262 228 138 340 323 40 86 81 77 71 42 9 34 104 143 125 109 87
323 318 333 295 277 228 245 235 229 249 228 206 220 218 221 233 236 239 229 232 249 248 207 235 267 259 244 231 231 236 227 228 244 234 197 216 227 216 224 255 254 231 235 245 226 201 218 240 226 247 262 249 220 239 261 274 276 267 260 256 256 262 266 264 272 294 299 295 291 273 258 177 129 137 191 168 114 86 71 74 77 60 45 50 85 129 124 110
317 265 249 282 280 196 233 232 211 235 245 229 227 223 229 232 224 284 251 219 231 253 226 56 351 289 239 228 228 239 246 238 239 247 174 217 229 205 211 226 235 256 266 236 225 218 231 253 241 236 262 258 198 248 277 280 272 257 257 294 292 277 277 280 276 275 283 293 290 290 325 79 128 165 195 201 105 73 49 29 51 89 77 52 42 54 79 88